DAL1190 KATL-KPBI

Flight info

Callsign DAL1190
Flight time 1h 15m
Altitude 37000
Route SMLTZ3 WALET ZPLEN VUUDU1
Aircraft A321/M-SDE3FGHIRWY/LB1

Departure

Time 2026-05-07 20:21
Airport Hartsfield Jackson Atlanta International Airport (KATL)

Arrival

Time 2026-05-07 21:37
Airport Palm Beach International Airport (KPBI)
Time Latitude Longitude Altitude Speed Heading
2026-05-07 19:40 33.64314 -84.43329 1036 ft 0 kts 94°
2026-05-07 19:53 33.64314 -84.43332 1036 ft 2 kts 94°
2026-05-07 19:54 33.64315 -84.43351 1036 ft 4 kts 98°
2026-05-07 19:54 33.64323 -84.43380 1036 ft 4 kts 131°
2026-05-07 19:54 33.64342 -84.43394 1036 ft 2 kts 179°
2026-05-07 19:54 33.64344 -84.43394 1036 ft 0 kts 180°
2026-05-07 20:16 33.64297 -84.43392 1036 ft 12 kts 176°
2026-05-07 20:16 33.64218 -84.43380 1035 ft 11 kts 171°
2026-05-07 20:16 33.64126 -84.43382 1035 ft 17 kts 182°
2026-05-07 20:17 33.63989 -84.43383 1035 ft 22 kts 181°
2026-05-07 20:17 33.63837 -84.43388 1035 ft 21 kts 181°
2026-05-07 20:17 33.63696 -84.43380 1035 ft 19 kts 153°
2026-05-07 20:17 33.63669 -84.43234 1035 ft 23 kts 89°
2026-05-07 20:18 33.63666 -84.43014 1035 ft 26 kts 93°
2026-05-07 20:18 33.63670 -84.42801 1035 ft 25 kts 87°
2026-05-07 20:18 33.63659 -84.42594 1036 ft 24 kts 94°
2026-05-07 20:18 33.63659 -84.42394 1036 ft 24 kts 89°
2026-05-07 20:19 33.63651 -84.42202 1036 ft 22 kts 98°
2026-05-07 20:19 33.63583 -84.42041 1036 ft 20 kts 115°
2026-05-07 20:19 33.63581 -84.41882 1035 ft 19 kts 89°
2026-05-07 20:19 33.63579 -84.41726 1035 ft 18 kts 90°
2026-05-07 20:20 33.63535 -84.41603 1034 ft 17 kts 160°
2026-05-07 20:20 33.63474 -84.41681 1034 ft 15 kts 271°
2026-05-07 20:20 33.63474 -84.41879 1036 ft 49 kts 269°
2026-05-07 20:20 33.63471 -84.42579 1036 ft 115 kts 270°
2026-05-07 20:21 33.63470 -84.43747 1041 ft 162 kts 269°
2026-05-07 20:21 33.63453 -84.45138 1505 ft 166 kts 268°
2026-05-07 20:21 33.63408 -84.46530 2124 ft 169 kts 267°
2026-05-07 20:21 33.63380 -84.48014 2505 ft 187 kts 270°
2026-05-07 20:22 33.63354 -84.49606 3034 ft 194 kts 268°
2026-05-07 20:22 33.63323 -84.51242 3608 ft 197 kts 269°
2026-05-07 20:22 33.63298 -84.52915 4154 ft 208 kts 269°
2026-05-07 20:22 33.63275 -84.54738 4555 ft 231 kts 269°
2026-05-07 20:23 33.63251 -84.56748 5035 ft 251 kts 269°
2026-05-07 20:23 33.63237 -84.58912 5642 ft 267 kts 270°
2026-05-07 20:23 33.63243 -84.61189 6295 ft 280 kts 270°
2026-05-07 20:23 33.63058 -84.63599 6761 ft 298 kts 256°
2026-05-07 20:24 33.62269 -84.65888 7654 ft 298 kts 237°
2026-05-07 20:24 33.60898 -84.67734 8600 ft 295 kts 217°
2026-05-07 20:24 33.59115 -84.68955 9414 ft 299 kts 202°
2026-05-07 20:24 33.57084 -84.69658 10024 ft 310 kts 188°
2026-05-07 20:25 33.54904 -84.69749 10596 ft 319 kts 174°
2026-05-07 20:25 33.52665 -84.69323 11074 ft 333 kts 169°
2026-05-07 20:25 33.50350 -84.68733 11505 ft 347 kts 167°
2026-05-07 20:25 33.47948 -84.68105 11935 ft 360 kts 168°
2026-05-07 20:26 33.45449 -84.67497 12362 ft 372 kts 169°
2026-05-07 20:26 33.42903 -84.66765 12789 ft 382 kts 159°
2026-05-07 20:26 33.40607 -84.65116 13232 ft 391 kts 139°
2026-05-07 20:26 33.38610 -84.62866 13646 ft 398 kts 136°
2026-05-07 20:27 33.36621 -84.60533 14022 ft 402 kts 135°
2026-05-07 20:27 33.34633 -84.58163 14394 ft 405 kts 135°
2026-05-07 20:27 33.32637 -84.55770 14773 ft 407 kts 135°
2026-05-07 20:27 33.30627 -84.53372 15151 ft 409 kts 135°
2026-05-07 20:28 33.28605 -84.50969 15527 ft 411 kts 135°
2026-05-07 20:28 33.26566 -84.48557 15893 ft 414 kts 135°
2026-05-07 20:28 33.24508 -84.46133 16279 ft 416 kts 135°
2026-05-07 20:28 33.22443 -84.43705 16655 ft 418 kts 135°
2026-05-07 20:29 33.20362 -84.41263 17032 ft 420 kts 135°
2026-05-07 20:29 33.18272 -84.38810 17421 ft 423 kts 135°
2026-05-07 20:29 33.16167 -84.36344 17792 ft 425 kts 135°
2026-05-07 20:29 33.14051 -84.33868 18160 ft 427 kts 135°
2026-05-07 20:30 33.11923 -84.31379 18537 ft 430 kts 135°
2026-05-07 20:30 33.09786 -84.28874 18916 ft 432 kts 135°
2026-05-07 20:30 33.07639 -84.26357 19289 ft 434 kts 135°
2026-05-07 20:30 33.05481 -84.23829 19665 ft 436 kts 135°
2026-05-07 20:31 33.03312 -84.21293 20042 ft 439 kts 135°
2026-05-07 20:31 33.00999 -84.18903 20415 ft 441 kts 143°
2026-05-07 20:31 32.98398 -84.16948 20787 ft 444 kts 152°
2026-05-07 20:31 32.95566 -84.15483 21159 ft 446 kts 161°
2026-05-07 20:32 32.92620 -84.14277 21546 ft 448 kts 161°
2026-05-07 20:32 32.89667 -84.13061 21922 ft 451 kts 161°
2026-05-07 20:32 32.86695 -84.11836 22299 ft 453 kts 161°
2026-05-07 20:32 32.83713 -84.10609 22683 ft 455 kts 161°
2026-05-07 20:33 32.80712 -84.09377 23053 ft 458 kts 161°
2026-05-07 20:33 32.77691 -84.08134 23426 ft 460 kts 161°
2026-05-07 20:33 32.74664 -84.06888 23794 ft 462 kts 161°
2026-05-07 20:33 32.71614 -84.05633 24179 ft 464 kts 161°
2026-05-07 20:34 32.68870 -84.04507 24521 ft 465 kts 161°
2026-05-07 20:34 32.65804 -84.03251 24891 ft 466 kts 161°
2026-05-07 20:34 32.62736 -84.01996 25263 ft 466 kts 161°
2026-05-07 20:34 32.59665 -84.00742 25637 ft 467 kts 161°
2026-05-07 20:35 32.56598 -83.99489 26015 ft 467 kts 161°
2026-05-07 20:35 32.53571 -83.98250 26386 ft 466 kts 161°
2026-05-07 20:35 32.50509 -83.96996 26760 ft 466 kts 161°
2026-05-07 20:35 32.47466 -83.95755 27133 ft 465 kts 161°
2026-05-07 20:36 32.44405 -83.94510 27507 ft 464 kts 161°
2026-05-07 20:36 32.41352 -83.93267 27882 ft 463 kts 161°
2026-05-07 20:36 32.38308 -83.92027 28256 ft 463 kts 161°
2026-05-07 20:36 32.35268 -83.90802 28632 ft 461 kts 161°
2026-05-07 20:37 32.32216 -83.89646 29008 ft 460 kts 162°
2026-05-07 20:37 32.29152 -83.88548 29382 ft 459 kts 163°
2026-05-07 20:37 32.26090 -83.87485 29765 ft 458 kts 163°
2026-05-07 20:37 32.23038 -83.86432 30132 ft 456 kts 163°
2026-05-07 20:38 32.19995 -83.85375 30507 ft 455 kts 163°
2026-05-07 20:38 32.16962 -83.84305 30876 ft 454 kts 163°
2026-05-07 20:38 32.13941 -83.83226 31259 ft 453 kts 163°
2026-05-07 20:38 32.10933 -83.82144 31632 ft 452 kts 163°
2026-05-07 20:39 32.07921 -83.81059 32007 ft 451 kts 163°
2026-05-07 20:39 32.04927 -83.79979 32382 ft 450 kts 163°
2026-05-07 20:39 32.01938 -83.78905 32757 ft 449 kts 163°
2026-05-07 20:39 31.98957 -83.77842 33131 ft 447 kts 163°
2026-05-07 20:40 31.95981 -83.76786 33505 ft 446 kts 163°
2026-05-07 20:40 31.93017 -83.75737 33881 ft 444 kts 163°
2026-05-07 20:40 31.90060 -83.74690 34257 ft 443 kts 163°
2026-05-07 20:40 31.87116 -83.73646 34630 ft 441 kts 163°
2026-05-07 20:41 31.84182 -83.72602 34934 ft 441 kts 163°
2026-05-07 20:41 31.78233 -83.70482 35014 ft 453 kts 163°
2026-05-07 20:42 31.72176 -83.68329 35010 ft 456 kts 163°
2026-05-07 20:42 31.66340 -83.65545 35010 ft 456 kts 152°
2026-05-07 20:43 31.60729 -83.62079 35005 ft 456 kts 152°
2026-05-07 20:43 31.55112 -83.58613 35011 ft 456 kts 152°
2026-05-07 20:44 31.49494 -83.55154 35005 ft 456 kts 152°
2026-05-07 20:44 31.43881 -83.51710 35005 ft 456 kts 152°
2026-05-07 20:45 31.38259 -83.48267 35007 ft 456 kts 152°
2026-05-07 20:45 31.32638 -83.44825 35012 ft 456 kts 152°
2026-05-07 20:46 31.27023 -83.41386 35009 ft 456 kts 152°
2026-05-07 20:46 31.21408 -83.37952 35013 ft 456 kts 152°
2026-05-07 20:47 31.15782 -83.34523 35006 ft 456 kts 152°
2026-05-07 20:47 31.10168 -83.31101 35007 ft 456 kts 152°
2026-05-07 20:48 31.04510 -83.27658 35004 ft 455 kts 152°
2026-05-07 20:48 30.98931 -83.24264 35009 ft 456 kts 152°
2026-05-07 20:49 30.93304 -83.20852 35013 ft 456 kts 152°
2026-05-07 20:49 30.87682 -83.17446 35007 ft 456 kts 152°
2026-05-07 20:50 30.82062 -83.14042 35012 ft 456 kts 152°
2026-05-07 20:50 30.76465 -83.10662 35009 ft 455 kts 153°
2026-05-07 20:51 30.70837 -83.07272 35017 ft 455 kts 153°
2026-05-07 20:51 30.65236 -83.03894 35014 ft 455 kts 152°
2026-05-07 20:52 30.59758 -83.00595 35012 ft 455 kts 152°
2026-05-07 20:52 30.54144 -82.97214 35011 ft 455 kts 152°
2026-05-07 20:53 30.48530 -82.93836 35011 ft 455 kts 153°
2026-05-07 20:53 30.42908 -82.90470 35009 ft 455 kts 153°
2026-05-07 20:54 30.37267 -82.87101 35008 ft 455 kts 153°
2026-05-07 20:54 30.32604 -82.84313 35012 ft 455 kts 153°
2026-05-07 20:55 30.27027 -82.80973 35012 ft 455 kts 153°
2026-05-07 20:55 30.21379 -82.77594 35004 ft 455 kts 153°
2026-05-07 20:56 30.15755 -82.74241 35014 ft 455 kts 153°
2026-05-07 20:56 30.10125 -82.70891 35005 ft 455 kts 153°
2026-05-07 20:57 30.04488 -82.67547 35016 ft 455 kts 153°
2026-05-07 20:57 29.98860 -82.64213 35008 ft 455 kts 153°
2026-05-07 20:58 29.93226 -82.60869 35008 ft 455 kts 153°
2026-05-07 20:58 29.87609 -82.57532 35013 ft 455 kts 153°
2026-05-07 20:59 29.81986 -82.54202 35010 ft 455 kts 153°
2026-05-07 20:59 29.76347 -82.50878 35012 ft 455 kts 153°
2026-05-07 21:00 29.70708 -82.47557 35010 ft 455 kts 153°
2026-05-07 21:00 29.65082 -82.44241 35013 ft 455 kts 153°
2026-05-07 21:01 29.59439 -82.40921 35007 ft 455 kts 153°
2026-05-07 21:01 29.53803 -82.37610 35013 ft 455 kts 153°
2026-05-07 21:02 29.48180 -82.34313 35016 ft 455 kts 153°
2026-05-07 21:02 29.42533 -82.31001 35012 ft 455 kts 153°
2026-05-07 21:03 29.36895 -82.27693 35011 ft 455 kts 153°
2026-05-07 21:03 29.31248 -82.24391 35007 ft 455 kts 153°
2026-05-07 21:04 29.25612 -82.21102 35009 ft 455 kts 153°
2026-05-07 21:04 29.19969 -82.17815 35005 ft 455 kts 153°
2026-05-07 21:05 29.14362 -82.14552 35014 ft 455 kts 153°
2026-05-07 21:05 29.08712 -82.11268 35005 ft 455 kts 153°
2026-05-07 21:06 29.03064 -82.07985 35011 ft 455 kts 153°
2026-05-07 21:06 28.97419 -82.04709 35009 ft 455 kts 153°
2026-05-07 21:07 28.92059 -82.01603 35012 ft 455 kts 153°
2026-05-07 21:07 28.86413 -81.98330 35007 ft 455 kts 153°
2026-05-07 21:08 28.80761 -81.95060 35008 ft 455 kts 153°
2026-05-07 21:08 28.75107 -81.91797 35011 ft 455 kts 153°
2026-05-07 21:09 28.69454 -81.88531 35013 ft 455 kts 153°
2026-05-07 21:09 28.63804 -81.85274 35008 ft 455 kts 153°
2026-05-07 21:10 28.58148 -81.82022 35012 ft 455 kts 153°
2026-05-07 21:10 28.52493 -81.78776 35005 ft 455 kts 153°
2026-05-07 21:11 28.46833 -81.75533 35010 ft 455 kts 153°
2026-05-07 21:11 28.38350 -81.70655 35008 ft 455 kts 153°
2026-05-07 21:12 28.32693 -81.67415 35005 ft 455 kts 153°
2026-05-07 21:12 28.27030 -81.64185 35009 ft 455 kts 153°
2026-05-07 21:13 28.21367 -81.60955 35006 ft 455 kts 153°
2026-05-07 21:13 28.15708 -81.57727 35009 ft 455 kts 153°
2026-05-07 21:14 28.10048 -81.54497 35005 ft 455 kts 153°
2026-05-07 21:14 28.04386 -81.51277 35006 ft 455 kts 153°
2026-05-07 21:15 27.98727 -81.48058 35011 ft 455 kts 153°
2026-05-07 21:15 27.93098 -81.44868 35011 ft 455 kts 153°
2026-05-07 21:16 27.87433 -81.41659 35014 ft 455 kts 153°
2026-05-07 21:16 27.81763 -81.38446 34633 ft 456 kts 153°
2026-05-07 21:17 27.78934 -81.36844 34109 ft 456 kts 153°
2026-05-07 21:17 27.76092 -81.35237 33585 ft 457 kts 153°
2026-05-07 21:17 27.73189 -81.33793 33053 ft 457 kts 163°
2026-05-07 21:17 27.70060 -81.33238 32527 ft 457 kts 180°
2026-05-07 21:18 27.66893 -81.33347 31915 ft 454 kts 183°
2026-05-07 21:18 27.63751 -81.33531 31290 ft 449 kts 183°
2026-05-07 21:18 27.60653 -81.33718 30664 ft 444 kts 183°
2026-05-07 21:18 27.57585 -81.33878 30037 ft 439 kts 179°
2026-05-07 21:19 27.54597 -81.33381 29408 ft 433 kts 162°
2026-05-07 21:19 27.51912 -81.31916 28784 ft 428 kts 146°
2026-05-07 21:19 27.49478 -81.29996 28152 ft 426 kts 144°
2026-05-07 21:19 27.47086 -81.28054 27536 ft 422 kts 144°
2026-05-07 21:20 27.44718 -81.26128 26911 ft 418 kts 144°
2026-05-07 21:20 27.42372 -81.24217 26286 ft 414 kts 144°
2026-05-07 21:20 27.40049 -81.22325 25659 ft 410 kts 144°
2026-05-07 21:20 27.37750 -81.20451 25034 ft 406 kts 144°
2026-05-07 21:21 27.35471 -81.18594 24408 ft 402 kts 144°
2026-05-07 21:21 27.33216 -81.16755 23781 ft 399 kts 144°
2026-05-07 21:21 27.30981 -81.14933 23155 ft 395 kts 144°
2026-05-07 21:21 27.28768 -81.13129 22530 ft 391 kts 144°
2026-05-07 21:22 27.26576 -81.11341 21904 ft 388 kts 144°
2026-05-07 21:22 27.24402 -81.09568 21277 ft 384 kts 144°
2026-05-07 21:22 27.22249 -81.07824 20647 ft 380 kts 144°
2026-05-07 21:22 27.20076 -81.06142 20084 ft 378 kts 146°
2026-05-07 21:23 27.17893 -81.04514 19537 ft 375 kts 147°
2026-05-07 21:23 27.15713 -81.02914 18988 ft 373 kts 147°
2026-05-07 21:23 27.13544 -81.01328 18435 ft 371 kts 147°
2026-05-07 21:23 27.11389 -80.99743 17883 ft 369 kts 147°
2026-05-07 21:24 27.09252 -80.98165 17394 ft 366 kts 146°
2026-05-07 21:24 27.07142 -80.96600 16942 ft 361 kts 146°
2026-05-07 21:24 27.05056 -80.95050 16490 ft 358 kts 146°
2026-05-07 21:24 27.02994 -80.93515 16040 ft 354 kts 146°
2026-05-07 21:25 27.00949 -80.91994 15590 ft 351 kts 146°
2026-05-07 21:25 26.98922 -80.90487 15127 ft 348 kts 146°
2026-05-07 21:25 26.96914 -80.88991 14688 ft 345 kts 146°
2026-05-07 21:25 26.94923 -80.87510 14237 ft 342 kts 146°
2026-05-07 21:26 26.92947 -80.86041 13786 ft 339 kts 146°
2026-05-07 21:26 26.90987 -80.84585 13335 ft 337 kts 146°
2026-05-07 21:26 26.89045 -80.83144 12888 ft 334 kts 146°
2026-05-07 21:26 26.87114 -80.81714 12434 ft 331 kts 146°
2026-05-07 21:27 26.85197 -80.80296 11981 ft 329 kts 146°
2026-05-07 21:27 26.83294 -80.78889 11532 ft 326 kts 146°
2026-05-07 21:27 26.81416 -80.77472 11116 ft 323 kts 142°
2026-05-07 21:27 26.79868 -80.75697 10983 ft 318 kts 126°
2026-05-07 21:28 26.78818 -80.73521 11009 ft 319 kts 111°
2026-05-07 21:28 26.78048 -80.71191 11009 ft 319 kts 110°
2026-05-07 21:28 26.77278 -80.68863 11009 ft 319 kts 110°
2026-05-07 21:28 26.76506 -80.66533 11009 ft 319 kts 110°
2026-05-07 21:29 26.75748 -80.64225 11002 ft 309 kts 110°
2026-05-07 21:29 26.75037 -80.62078 10986 ft 280 kts 110°
2026-05-07 21:29 26.74363 -80.60076 10533 ft 270 kts 111°
2026-05-07 21:29 26.73698 -80.58139 10032 ft 262 kts 111°
2026-05-07 21:30 26.73046 -80.56262 9496 ft 258 kts 111°
2026-05-07 21:30 26.72392 -80.54391 8946 ft 258 kts 111°
2026-05-07 21:30 26.71742 -80.52527 8396 ft 256 kts 111°
2026-05-07 21:30 26.71105 -80.50699 7851 ft 247 kts 111°
2026-05-07 21:31 26.70498 -80.48963 7326 ft 232 kts 111°
2026-05-07 21:31 26.70073 -80.47254 6770 ft 226 kts 99°
2026-05-07 21:31 26.69947 -80.45513 6227 ft 224 kts 93°
2026-05-07 21:31 26.69854 -80.43807 5460 ft 226 kts 94°
2026-05-07 21:32 26.69753 -80.42007 4931 ft 236 kts 94°
2026-05-07 21:32 26.69631 -80.40163 4394 ft 238 kts 96°
2026-05-07 21:32 26.69495 -80.38323 3847 ft 237 kts 94°
2026-05-07 21:32 26.69406 -80.36494 3326 ft 235 kts 93°
2026-05-07 21:33 26.69334 -80.34674 3045 ft 235 kts 93°
2026-05-07 21:33 26.69258 -80.32875 3000 ft 228 kts 92°
2026-05-07 21:33 26.69183 -80.31113 3012 ft 225 kts 92°
2026-05-07 21:33 26.69112 -80.29375 3012 ft 223 kts 92°
2026-05-07 21:34 26.69009 -80.27678 2895 ft 219 kts 95°
2026-05-07 21:34 26.68880 -80.25956 2592 ft 222 kts 95°
2026-05-07 21:34 26.68787 -80.24230 2129 ft 222 kts 94°
2026-05-07 21:34 26.68726 -80.22490 1712 ft 226 kts 92°
2026-05-07 21:35 26.68687 -80.20737 1371 ft 220 kts 91°
2026-05-07 21:35 26.68663 -80.19131 1202 ft 202 kts 91°
2026-05-07 21:35 26.68648 -80.17589 1064 ft 194 kts 90°
2026-05-07 21:35 26.68609 -80.16096 887 ft 189 kts 97°
2026-05-07 21:36 26.68503 -80.14664 715 ft 186 kts 97°
2026-05-07 21:36 26.68436 -80.13262 512 ft 171 kts 94°
2026-05-07 21:36 26.68394 -80.11992 312 ft 158 kts 94°
2026-05-07 21:36 26.68322 -80.10787 88 ft 152 kts 96°
2026-05-07 21:37 26.68277 -80.09668 29 ft 133 kts 95°
2026-05-07 21:37 26.68234 -80.08843 22 ft 44 kts 90°
2026-05-07 21:37 26.68259 -80.08653 23 ft 10 kts 53°
2026-05-07 21:37 26.68331 -80.08645 22 ft 15 kts 317°
2026-05-07 21:38 26.68344 -80.08721 22 ft 14 kts 272°
2026-05-07 21:38 26.68391 -80.08736 22 ft 9 kts 14°
2026-05-07 21:38 26.68465 -80.08765 22 ft 10 kts 333°
2026-05-07 21:38 26.68542 -80.08777 22 ft 12 kts 359°
2026-05-07 21:39 26.68622 -80.08795 22 ft 10 kts 334°
2026-05-07 21:39 26.68661 -80.08818 22 ft 9 kts 332°
2026-05-07 21:39 26.68686 -80.08885 22 ft 3 kts 274°
2026-05-07 21:39 26.68687 -80.08900 22 ft 0 kts 273°
2026-05-07 21:54 26.68687 -80.08899 22 ft 0 kts 273°